Location: Kellogg
(38.0159°N, 90.0546°W)
Time: 00:55:59
(UTC+00:00)

Vanguard 2 - Pass Details

Date: 19 September 2024
Orbit: 552 x 2910 km, 32.9° (Epoch: 15 October)

Event Time Altitude Azimuth Distance (km) Brightness Sun altitude
Rises 13:50:44 0° 269° (W) 3,883 10.6 23.4°
Reaches altitude 10° 13:53:33 10° 256° (WSW) 3,216 10.3 23.9°
Maximum altitude 14:00:15 27° 203° (SSW) 2,793 10.5 25.2°
Drops below altitude 10° 14:09:56 10° 153° (SSE) 4,755 12.4 26.9°
Sets 14:15:16 0° 143° (SE) 6,135 13.0 27.9°
